Location: Baia de Cri?
(46.1667°N, 22.7167°E)
Time: 23:37:52
(UTC+00:00)

SL-8 Rocket - Pass Details

Date: 15 January 2026
Orbit: 955 x 990 km, 82.9° (Epoch: 13 February)

Event Time Altitude Azimuth Distance (km) Brightness Sun altitude
Rises 05:27:29 0° 194° (SSW) 3,688 7.1 -7.1°
Reaches altitude 10° 05:30:01 10° 197° (SSW) 2,742 6.5 -6.7°
Maximum altitude 05:36:17 69° 281° (W) 1,053 4.0 -5.7°
Drops below altitude 10° 05:42:34 10° 4° (N) 2,744 6.2 -4.7°
Sets 05:45:07 0° 7° (N) 3,691 6.8 -4.3°
